Avalon, CA

6:47 AM PST on February 10, 2016 (GMT -0800)
Catalina

Weather History for KAVX - June, 2013

Change the Weather History Date:

Sunday, June 16, 2013

  Actual Average Record
Temperature  
Mean Temperature 60 °F -  
Max Temperature 70 °F 67 °F 91 °F (2006)
Min Temperature 53 °F 54 °F 51 °F (2007)
Degree Days  
Heating Degree Days 4    
Growing Degree Days 10 (Base 50)    
Moisture  
Dew Point 50 °F    
Average Humidity 76    
Maximum Humidity 100    
Minimum Humidity 27    
Precipitation  
Precipitation 0.00 in - - ()
Sea Level Pressure  
Sea Level Pressure 29.99 in    
Wind  
Wind Speed 2 mph (SW)    
Max Wind Speed 10 mph    
Max Gust Speed -    
Visibility 7 miles    
Events Fog    
Averages and records for this station are not official NWS values.
T = Trace of Precipitation, MM = Missing Value Source: NWS Daily Summary

Daily Weather History Graph

Daily Weather History Graph

Search for Another Location

Airport or City:

Trip Planner

Search our weather history database for the weather conditions in past years. The results will help you decide how hot, cold, wet, or windy it might be!

Date:

Astronomy

Jun. 16, 2013 Rise Set
Actual Time 5:43 AM PDT 8:05 PM PDT
Civil Twilight 5:14 AM PDT 8:34 PM PDT
Nautical Twilight 4:39 AM PDT 9:09 PM PDT
Astronomical Twilight 4:00 AM PDT 9:48 PM PDT
Moon 1:03 PM PDT (6/16) 12:32 AM PDT (6/16)
Length of Visible Light 15h 19m
Length of Day
14h 21m
Waxing Crescent, 51% of the Moon is Illuminated
Jun 16
Waxing Crescent
Jun 23
Full
Jun 29
Last Quarter
Jul 8
New
Jul 15
First Quarter

Hourly Weather History & Observations

Time (PDT) Temp. Dew Point Humidity Pressure Visibility Wind Dir Wind Speed Gust Speed Precip Events Conditions
12:39 AM 53.6 °F 53.6 °F 100% 29.99 in 2.0 mi Calm Calm - N/A   Overcast
12:49 AM 53.6 °F 51.8 °F 94% 29.99 in 1.0 mi Calm Calm - N/A   Overcast
12:51 AM 53.1 °F 52.0 °F 96% 29.97 in 1.0 mi Calm Calm - N/A   Overcast
1:00 AM 53.6 °F 51.8 °F 94% 29.99 in 2.0 mi Calm Calm - N/A   Overcast
1:14 AM 53.6 °F 51.8 °F 94% 29.99 in 1.0 mi Calm Calm - N/A   Mist
1:21 AM 53.6 °F 51.8 °F 94% 29.99 in 0.5 mi Calm Calm - N/A Fog Fog
1:51 AM 53.1 °F 52.0 °F 96% 29.97 in 0.5 mi Calm Calm - N/A Fog Fog
2:19 AM 53.6 °F 51.8 °F 94% 29.99 in 1.2 mi Calm Calm - N/A   Overcast
2:30 AM 53.6 °F 51.8 °F 94% 29.99 in 2.5 mi Calm Calm - N/A   Overcast
2:37 AM 53.6 °F 51.8 °F 94% 29.99 in 5.0 mi Calm Calm - N/A   Overcast
2:51 AM 53.1 °F 52.0 °F 96% 29.98 in 6.0 mi Calm Calm - N/A   Overcast
3:51 AM 53.1 °F 51.1 °F 93% 29.97 in 8.0 mi ESE 3.5 mph - N/A   Overcast
4:51 AM 53.1 °F 51.1 °F 93% 29.98 in 8.0 mi Calm Calm - N/A   Overcast
5:51 AM 53.1 °F 51.1 °F 93% 29.99 in 8.0 mi SE 3.5 mph - N/A   Overcast
6:51 AM 53.1 °F 50.0 °F 89% 30.01 in 8.0 mi South 3.5 mph - N/A   Overcast
7:27 AM 55.4 °F 51.8 °F 88% 30.03 in 9.0 mi Calm Calm - N/A   Overcast
7:51 AM 55.9 °F 51.1 °F 84% 30.02 in 10.0 mi Calm Calm - N/A   Overcast
8:17 AM 57.2 °F 51.8 °F 82% 30.04 in 10.0 mi Calm Calm - N/A   Scattered Clouds
8:51 AM 61.0 °F 52.0 °F 72% 30.03 in 10.0 mi ENE 3.5 mph - N/A   Clear
9:51 AM 63.0 °F 51.1 °F 65% 30.02 in 10.0 mi Variable 4.6 mph - N/A   Clear
10:51 AM 63.0 °F 53.1 °F 70% 30.02 in 10.0 mi West 6.9 mph - N/A   Clear
11:51 AM 64.9 °F 53.1 °F 65% 30.02 in 10.0 mi West 4.6 mph - N/A   Clear
12:51 PM 64.9 °F 53.1 °F 65% 30.02 in 10.0 mi Variable 5.8 mph - N/A   Clear
1:51 PM 64.9 °F 53.1 °F 65% 30.00 in 10.0 mi West 6.9 mph - N/A   Clear
2:51 PM 64.9 °F 53.1 °F 65% 30.00 in 10.0 mi WSW 9.2 mph - N/A   Clear
3:51 PM 66.9 °F 51.1 °F 57% 29.99 in 10.0 mi WSW 6.9 mph - N/A   Clear
4:51 PM 66.9 °F 52.0 °F 59% 29.98 in 10.0 mi WSW 5.8 mph - N/A   Clear
5:51 PM 62.1 °F 53.1 °F 72% 29.97 in 10.0 mi WSW 10.4 mph - N/A   Clear
6:51 PM 61.0 °F 53.1 °F 75% 29.97 in 10.0 mi SW 5.8 mph - N/A   Clear
7:51 PM 66.9 °F 43.0 °F 42% 29.96 in 10.0 mi WNW 5.8 mph - N/A   Clear
8:51 PM 64.9 °F 42.1 °F 43% 29.95 in 10.0 mi Calm Calm - N/A   Clear
9:51 PM 68.0 °F 33.1 °F 27% 29.94 in 10.0 mi Calm Calm - N/A   Clear
10:51 PM 66.0 °F 39.0 °F 37% 29.95 in 10.0 mi SSE 3.5 mph - N/A   Clear
11:51 PM 66.9 °F 39.9 °F 37% 29.94 in 10.0 mi Calm Calm - N/A   Clear